This is the latest recevied weather packets stored in our database for station/object N5VIS. If no packets are shown the sender has not sent any weather packets the latest 10 day(s).
| Time | Temp. | Humidity | Pressure | Rain* | Wind** | Luminosity | Snow |
|---|---|---|---|---|---|---|---|
| 1777720322 | 12.78° C | 99% | 1012.6 hPa | 3.05 mm | - | - | - |
| 1777720020 | 12.78° C | 99% | 1011.7 hPa | 1.78 mm | - | - | - |
| 1777719717 | 12.78° C | 99% | 1012 hPa | 0 mm | - | - | - |
| 1777719415 | 12.78° C | 99% | 1011.8 hPa | 0 mm | - | - | - |
| 1777719111 | 12.78° C | 99% | 1012 hPa | 0 mm | - | - | - |
| 1777718809 | 13.33° C | 99% | 1011.8 hPa | 0 mm | - | - | - |
| 1777718506 | 13.33° C | 99% | 1012.3 hPa | 0 mm | - | - | - |
| 1777718203 | 13.33° C | 99% | 1012.3 hPa | 1.27 mm | - | - | - |
| 1777717901 | 13.33° C | 99% | 1012.3 hPa | 1.27 mm | - | - | - |
| 1777717598 | 13.33° C | 99% | 1012.3 hPa | 0 mm | - | - | - |
| 1777717295 | 13.33° C | 99% | 1012.7 hPa | 0 mm | - | - | - |
| 1777716993 | 13.33° C | 99% | 1013 hPa | 1.78 mm | - | - | - |
| 1777716691 | 13.33° C | 99% | 1012 hPa | 3.05 mm | - | - | - |
| 1777716389 | 13.33° C | 99% | 1011.3 hPa | 1.27 mm | - | - | - |
| 1777716087 | 13.33° C | 99% | 1012 hPa | 1.78 mm | - | - | - |
| 1777715785 | 13.33° C | 99% | 1011.9 hPa | 3.56 mm | - | - | - |
| 1777715482 | 13.33° C | 99% | 1011.4 hPa | 3.05 mm | - | - | - |
| 1777715179 | 13.33° C | 99% | 1011.5 hPa | 4.32 mm | - | - | - |
| 1777714877 | 13.33° C | 99% | 1012 hPa | 6.1 mm | - | - | - |
| 1777714575 | 13.33° C | 99% | 1012.1 hPa | 6.1 mm | - | - | - |
| 1777714272 | 13.33° C | 99% | 1012.5 hPa | 6.1 mm | - | - | - |
| 1777713970 | 13.89° C | 99% | 1012.8 hPa | 6.1 mm | - | - | - |
| 1777713668 | 13.89° C | 99% | 1012.1 hPa | 3.05 mm | - | - | - |
| 1777713364 | 13.33° C | 99% | 1011.7 hPa | 1.78 mm | - | - | - |
| 1777713056 | 13.33° C | 99% | 1010.9 hPa | 1.78 mm | - | - | - |
* Rain latest hour (hover to see other rain measurements)
** Current wind speed in m/s (hover to see current wind gust speed)